This demonstration page uses our WeatherBlox Daily Observations layout. Learn more.

Left ArrowRight Arrow

Hourly Observations for March 13, 2022

Temp ( °F °C ) Dew Point ( °F °C ) Humidity (%) Winds ( mph kmh ) Pressure ( in mb ) Visibility ( mi km ) Precip ( " mm )
12:15 am 00:15 Clear 34 1 28 -2 81 81 WSW 9 15 30.08 1019 10 16 0.00 0.00
12:35 am 00:35 Clear 34 1 28 -2 81 81 WNW 7 11 30.07 1018 10 16 0.00 0.00
12:55 am 00:55 Clear 34 1 28 -2 81 81 W 5 7 30.07 1018 10 16 0.00 0.00
1:15 am 01:15 Clear 36 2 28 -2 75 75 W 7 11 30.07 1018 10 16 0.00 0.00
1:35 am 01:35 Clear 36 2 28 -2 75 75 W 7 11 30.06 1018 10 16 0.00 0.00
1:55 am 01:55 Clear 36 2 28 -2 75 75 WNW 6 9 30.06 1018 10 16 0.00 0.00
3:15 am 03:15 Clear 36 2 28 -2 75 75 NW 8 13 30.05 1017 10 16 0.00 0.00
3:35 am 03:35 Clear 37 3 28 -2 70 70 NW 8 13 30.03 1017 10 16 0.00 0.00
3:55 am 03:55 Clear 37 3 28 -2 70 70 NNW 8 13 30.02 1016 10 16 0.00 0.00
4:15 am 04:15 Clear 36 2 27 -3 70 70 NNW 10 17 30.02 1016 10 16 0.00 0.00
4:35 am 04:35 Clear 37 3 28 -2 70 70 NNW 10 17 30.01 1016 10 16 0.00 0.00
4:55 am 04:55 Clear 36 2 28 -2 75 75 NW 13 20 30.02 1016 10 16 0.00 0.00
5:15 am 05:15 Clear 36 2 28 -2 75 75 NW 12 19 30.01 1016 10 16 0.00 0.00
5:35 am 05:35 Clear 37 3 28 -2 70 70 NNW 9 15 30.00 1016 10 16 0.00 0.00
5:55 am 05:55 Clear 36 2 28 -2 75 75 NNW 10 17 30.01 1016 10 16 0.00 0.00
6:15 am 06:15 Clear 36 2 28 -2 75 75 WNW 10 17 30.01 1016 10 16 0.00 0.00
6:35 am 06:35 Clear 34 1 27 -3 75 75 W 9 15 30.03 1017 10 16 0.00 0.00
6:55 am 06:55 Clear 34 1 27 -3 75 75 W 8 13 30.03 1017 10 16 0.00 0.00
7:15 am 07:15 Clear 32 0 27 -3 80 80 W 8 13 30.04 1017 10 16 0.00 0.00
7:35 am 07:35 Clear 30 -1 25 -4 80 80 WNW 7 11 30.05 1017 10 16 0.00 0.00
7:55 am 07:55 Sunny 30 -1 27 -3 86 86 WNW 7 11 30.05 1017 10 16 0.00 0.00
8:15 am 08:15 Sunny 30 -1 25 -4 80 80 NW 8 13 30.05 1017 10 16 0.00 0.00
8:35 am 08:35 Sunny 34 1 28 -2 81 81 WNW 6 9 30.03 1017 10 16 0.00 0.00
8:55 am 08:55 Sunny 37 3 30 -1 75 75 WNW 10 17 30.01 1016 10 16 0.00 0.00
9:15 am 09:15 Sunny 39 4 30 -1 70 70 W 6 9 30.01 1016 10 16 0.00 0.00
9:35 am 09:35 Sunny 43 6 32 0 66 66 Calm 30.00 1016 10 16 0.00 0.00
9:55 am 09:55 Sunny 45 7 32 0 61 61 Calm 29.99 1016 10 16 0.00 0.00
10:15 am 10:15 Sunny 48 9 32 0 54 54 W 3 6 29.97 1015 10 16 0.00 0.00
10:35 am 10:35 Sunny 52 11 32 0 47 47 NW 7 11 29.96 1015 10 16 0.00 0.00
10:55 am 10:55 Sunny 54 12 32 0 44 44 NW 6 9 29.94 1014 10 16 0.00 0.00
11:15 am 11:15 Sunny 54 12 30 -1 41 41 Calm 29.93 1014 10 16 0.00 0.00
11:35 am 11:35 Sunny 55 13 30 -1 38 38 W 3 6 29.93 1014 10 16 0.00 0.00
11:55 am 11:55 Sunny 55 13 30 -1 38 38 Calm 29.91 1013 10 16 0.00 0.00
12:15 pm 12:15 Sunny 59 15 32 0 36 36 Calm 29.89 1012 10 16 0.00 0.00
12:35 pm 12:35 Sunny 59 15 30 -1 34 34 S 6 9 29.88 1012 10 16 0.00 0.00
12:55 pm 12:55 Sunny 61 16 32 0 34 34 SSE 5 7 29.86 1011 10 16 0.00 0.00
1:15 pm 13:15 Sunny 63 17 32 0 32 32 SSW 5 7 29.83 1010 10 16 0.00 0.00
1:35 pm 13:35 Sunny 64 18 32 0 30 30 S 6 9 29.81 1010 10 16 0.00 0.00
1:55 pm 13:55 Sunny 66 19 32 0 28 28 S 6 9 29.79 1009 10 16 0.00 0.00
2:15 pm 14:15 Sunny 68 20 32 0 26 26 SSW 3 6 29.76 1008 10 16 0.00 0.00
2:35 pm 14:35 Sunny 68 20 32 0 26 26 SW 6 9 29.75 1008 10 16 0.00 0.00
2:55 pm 14:55 Sunny 68 20 30 -1 24 24 SSE 6 9 29.73 1007 10 16 0.00 0.00
3:15 pm 15:15 Sunny 68 20 30 -1 24 24 S 7 11 29.71 1006 10 16 0.00 0.00
3:35 pm 15:35 Sunny 68 20 28 -2 23 23 S 7 11 29.71 1006 10 16 0.00 0.00
3:55 pm 15:55 Sunny 68 20 28 -2 23 23 SSE 7 11 29.70 1006 10 16 0.00 0.00
4:15 pm 16:15 Sunny 68 20 28 -2 23 23 S 12 19 29.69 1006 10 16 0.00 0.00
4:35 pm 16:35 Sunny 68 20 30 -1 24 24 S 12 19 29.68 1005 10 16 0.00 0.00
4:55 pm 16:55 Sunny 68 20 30 -1 24 24 SSE 15 24 29.67 1005 10 16 0.00 0.00
5:15 pm 17:15 Sunny 68 20 32 0 26 26 SSE 12 19 29.66 1005 10 16 0.00 0.00
5:35 pm 17:35 Sunny 68 20 30 -1 24 24 S 12 19 29.65 1004 10 16 0.00 0.00
5:55 pm 17:55 Sunny 68 20 30 -1 24 24 S 12 19 29.64 1004 10 16 0.00 0.00
6:15 pm 18:15 Sunny 68 20 28 -2 23 23 S 10 17 29.63 1004 10 16 0.00 0.00
6:35 pm 18:35 Sunny 68 20 30 -1 24 24 SSE 9 15 29.63 1004 10 16 0.00 0.00
6:55 pm 18:55 Sunny 68 20 30 -1 24 24 SSE 6 9 29.62 1003 10 16 0.00 0.00
7:15 pm 19:15 Sunny 66 19 28 -2 24 24 SSE 6 9 29.64 1004 10 16 0.00 0.00
7:35 pm 19:35 Sunny 61 16 27 -3 27 27 SSE 5 7 29.68 1005 10 16 0.00 0.00
7:55 pm 19:55 Clear 59 15 27 -3 29 29 S 7 11 29.69 1005 10 16 0.00 0.00
8:15 pm 20:15 Clear 59 15 23 -5 25 25 SSE 8 13 29.69 1005 10 16 0.00 0.00
8:35 pm 20:35 Clear 59 15 23 -5 25 25 S 9 15 29.69 1005 10 16 0.00 0.00
8:55 pm 20:55 Clear 59 15 25 -4 27 27 S 10 17 29.70 1006 10 16 0.00 0.00
9:15 pm 21:15 Clear 59 15 25 -4 27 27 S 10 17 29.70 1006 10 16 0.00 0.00
9:35 pm 21:35 Clear 57 14 23 -5 27 27 S 13 20 29.72 1006 10 16 0.00 0.00
9:55 pm 21:55 Clear 55 13 23 -5 28 28 S 13 20 29.72 1007 10 16 0.00 0.00
10:15 pm 22:15 Clear 55 13 23 -5 28 28 SSE 13 20 29.72 1007 10 16 0.00 0.00
10:35 pm 22:35 Clear 54 12 23 -5 30 30 S 12 19 29.73 1007 10 16 0.00 0.00
10:55 pm 22:55 Clear 54 12 21 -6 28 28 S 12 19 29.73 1007 10 16 0.00 0.00
11:15 pm 23:15 Clear 54 12 21 -6 28 28 S 12 19 29.73 1007 10 16 0.00 0.00
11:35 pm 23:35 Clear 52 11 19 -7 28 28 S 9 15 29.74 1007 10 16 0.00 0.00
11:55 pm 23:55 Clear 52 11 19 -7 28 28 S 12 19 29.73 1007 10 16 0.00 0.00

Powered by AerisWeather